Weather in Kamianka

Ukraine / Kharkiv Region     49°59′07″N   37°49′54″E
temp.,
°C
wind,
m/s
gust,
m/s
humid.,
%
clouds,
%
prec.,
mm/h
press.,
hPa
HPBL,
m
18 may, wed
wed1800:00+6w35910 0.1 101067
03:00+5w239264 0.1 101035
06:00+6nw2584100 0.0 1010160
09:00+11nnw345999 0.0 1011779
12:00+14n334799 0.1 10111908
15:00+13n3355100 0.1 10111372
18:00+13n456313 0.2 10121111
21:00+8n35830 0.2 101475
19 may, thu
thu1900:00+7n35945 0.0 101597
03:00+6n410955 0.0 1016210
06:00+7n410883 0.0 1017287
09:00+13nne57642 0.0 1018791
12:00+16n665237 0.1 10181852
15:00+16n574763 0.1 10172095
18:00+14nnw3566100 0.0 1017123
21:00+12nw41069100 0.1 1018305
20 may, fri
fri2000:00+8nw3108056 0.0 1018177
03:00+7nw378666 0.0 1018132
06:00+8nw248688 0.0 1019118
09:00+14nw336345 0.0 1020697
12:00+16nw345583 0.9 10191756
15:00+15nw3566100 1.6 1018794
18:00+16wnw3564100 0.4 10161147
21:00+12ssw1183100 0.8 101511
21 may, sat
sat2100:00+11sw3796100 1.9 1012317
03:00+11ssw41095100 1.9 1009350
06:00+12sw71589100 0.0 1004561
09:00+14wsw71188100 0.9 1002773
12:00+14wnw6108875 0.9 1001763
15:00+7nne91591100 2.6 1006685
18:00+7nne81382100 0.0 1010926
21:00+6nw228814 0.0 101217
22 may, sun
sun2200:00+5nnw229219 0.0 101228
03:00+4n228992 0.0 101316
06:00+5nne1282100 0.0 101381
09:00+10ene2262100 0.0 1012659
12:00+12e2250100 0.0 10111465
15:00+12ne2351100 0.0 10101523
18:00+12ene2354100 0.0 10101240
21:00+8nne2267100 0.0 101121